Weather in Baryshivka

Ukraine / Kyiv Region     50°21′56″N   31°19′42″E
temp.,
°C
wind,
m/s
gust,
m/s
humid.,
%
clouds,
%
prec.,
mm/h
press.,
hPa
HPBL,
m
20 september, mon
mon2000:00+9wsw4787100 0.3 1008542
03:00+8wsw5786100 0.5 1008595
06:00+8wsw61191100 0.1 1006589
09:00+9wsw71189100 0.3 1006617
12:00+11w61092100 0.1 1007759
15:00+12wnw6978100 0.2 10091096
18:00+10w6982100 0.0 1011872
21:00+9w5884100 0.1 1013706
21 september, tue
tue2100:00+8wnw5784100 0.1 1013953
03:00+7w5880100 0.1 1014928
06:00+7w5878100 0.0 1014854
09:00+6w6884100 0.1 10141006
12:00+6wnw6888100 0.1 1015900
15:00+6wnw6989100 0.3 1015912
18:00+6wnw61092100 0.1 1016880
21:00+6wnw61092100 0.1 1016921
22 september, wed
wed2200:00+6wnw6993100 0.1 1016966
03:00+6wnw5992100 0.2 1016960
06:00+6wnw5889100 0.1 10151029
09:00+6wnw5788100 0.3 10151023
12:00+7nw4783100 0.3 1015926
15:00+7wnw4683100 0.5 1016952
18:00+6nw3589100 0.2 1015968
21:00+6nw3592100 0.6 1016461
23 september, thu
thu2300:00+6nw2492100 0.1 1015374
03:00+6nw2493100 0.2 1015401
06:00+6nw2493100 0.0 1015379
09:00+6nw2491100 0.1 1015418
12:00+7wnw3386100 0.1 1016546
15:00+7wnw3382100 0.2 1016675
18:00+8wnw2378100 0.1 1016453
21:00+6w248698 0.1 1016154
24 september, fri
fri2400:00+6wsw248786 0.0 1015158
03:00+6sw2490100 0.0 1015213
06:00+6ssw2590100 0.0 1014219
09:00+8ssw4681100 0.0 1013380
12:00+13ssw6853100 0.0 10111041
15:00+14ssw71252100 0.0 10091461
18:00+11sw61480100 1.0 1009789
21:00+9sw4119391 1.3 1010361